Regional Weather Roundup
Issued by NWS Charleston, SC

Current Version | Previous Version | Graphics & Text | Print | Product List | Glossary On
Versions: 1 2 3 4 5 6 7 8 9 10 11 12 13 14 15 16 17 18 19 20 21 22 23 24 25 26 27 28 29 30 31 32 33 34 35 36 37 38 39 40 41 42 43 44 45 46 47 48 49 50
000
ASUS42 KCHS 282212
RWRCHS

REGIONAL WEATHER ROUNDUP
NATIONAL WEATHER SERVICE CHARLESTON SC
600 PM EDT TUE JUL 28 2015

NOTE: "FAIR" INDICATES FEW OR NO CLOUDS BELOW 12,000 FEET WITH NO
SIGNIFICANT WEATHER AND/OR OBSTRUCTIONS TO VISIBILITY.

NOT ALL STATIONS ARE QUALITY CONTROLLED BY THE NATIONAL
WEATHER SERVICE. USE DATA WITH CAUTION...ESPECIALLY
DEWPOINT OBSERVATIONS.

SCZ027-030-031-034>040-042>050-282300-
...SOUTHEAST SOUTH CAROLINA...

CITY           SKY/WX    TMP DP  RH WIND       PRES   REMARKS
N CHARLESTON   MOSUNNY   87  69  54 SE9       29.94S HX  91
WATERFRONT PRK   N/A     87  76  69 E12       29.92F HX  97
MOUNT PLEASANT LGT RAIN  86  73  66 E8        29.94S HX  93
JOHNS ISLAND   FAIR      84  75  74 E12       29.94F HX  92
PINOPOLIS      NOT AVBL
MONCKS CORNER  FAIR      90  68  48 CALM      29.94S HX  93
SUMMERVILLE    FAIR      90  70  51 CALM      29.94F HX  95
BEAUFORT MCAS  MOSUNNY   89  73  59 E9        29.94S HX  97
BEAUFORT ARPT  FAIR      88  73  62 SE7       29.93F HX  96
HILTON HEAD IS PTSUNNY   86  75  70 E6        29.95S HX  95
WALTERBORO     PTCLDY    95  68  41 NE7       29.93F HX  99
ALLENDALE      FAIR      90  75  62 CALM      29.92F HX 100

...SOUTHERN MIDLANDS AND PEE DEE...

CITY           SKY/WX    TMP DP  RH WIND       PRES   REMARKS
GEORGETOWN     NOT AVBL
KINGSTREE      NOT AVBL
ORANGEBURG     PTSUNNY   92  66  42 VRB6      29.92F HX  94
BARNWELL       FAIR      88  75  66 CALM      29.94F HX  97
AIKEN          FAIR      86  68  54 SE12      29.97F
MANNING        FAIR      88  68  51 S3        29.93F HX  91
COLUMBIA       PTSUNNY   89  68  49 CALM      29.93F HX  93
SUMTER         PTSUNNY   89  71  55 W8        29.92F HX  94
FLORENCE       PTSUNNY   92  66  42 E8        29.93S HX  94
MYRTLE BEACH   SUNNY     86  72  62 SE12      29.98S HX  92
N MYRTLE BEACH SUNNY     85  72  65 E13       29.97R HX  91

$$

GAZ063-065-086>088-099>101-113>116-118-119-134>141-150-282300-
...SOUTHEAST GEORGIA...

CITY           SKY/WX    TMP DP  RH WIND       PRES   REMARKS
SAVANNAH ARPT  PTSUNNY   88  73  61 SE14      29.93R HX  95
HUNTER AAF     MOSUNNY   87  76  68 E12       29.91S HX  97
FORT STEWART   SUNNY     91  71  52 SE7       29.90S HX  97
STATESBORO     PTSUNNY   91  76  60 CALM      29.92S HX 103
SYLVANIA       MOCLDY    93  76  57 N3        29.93S HX 105
CLAXTON        FAIR      91  73  55 E5        29.92S HX 100

...CSRA...CENTRAL AND FAR SOUTHEAST GEORGIA...

CITY           SKY/WX    TMP DP  RH WIND       PRES   REMARKS
THOMSON        CLOUDY    89  73  58 SW8       29.98R HX  97
AUGUSTA-BUSH   CLOUDY    92  70  48 SE7       29.92F HX  97
AUGUSTA-DANIEL CLOUDY    92  70  48 S9        29.94F HX  97
SWAINSBORO     FAIR      86  77  74 E8        29.94S HX  97
VIDALIA        RAIN      91  72  52 S3        29.92F HX  98
EASTMAN        FAIR      92  74  55 E5        29.95S HX 101
HAZLEHURST     FAIR      94  73  51 CALM      29.92S HX 102
ALMA           MOSUNNY   94  72  48 VRB5      29.91F HX 102
WAYCROSS       MOSUNNY   96  76  52 E5        29.92S HX 108
JESUP          FAIR      93  79  62 SE7       29.93S HX 110
BAXLEY         FAIR      97  72  44 NE7       29.91F HX 105
BRUNSWICK      SUNNY     88  72  58 E13       29.94S HX  94
SAINT SIMONS   SUNNY     85  74  69 NE13      29.94R HX  92

$$

SCZ027-028-034-036>038-045-046-048>050-GAZ119-141-282300-
...LAKE AND SUPPLEMENTAL COASTAL OBSERVATIONS...

STATION/POSITION TIME  TEMP    WIND        PRES    WAVE   SWELL
                       AIR SEA DIR/SP/G            HT/PER HT/PER/DIR
                 (UTC) (F)     (DEG/KT/KT) (MB)    (FT/S) (FT/S/D)
UPR LAKE MARION  NOT AVBL
WINYAH BAY       2045   83      70/ 10     1014.0
LAKE MURRAY      2100   87     110/  8/ 15 1012.9S
ACE BASIN NERRS  NOT AVBL
FORT PULASKI     2100   84 86   80/ 13/ 15 1014.3F
SAPELO ISLAND    2100   88      50/ 11     1013.0S

$$

ANZ835-935-AMZ111-154-330-350-352-354-370-450-454-472-282300-
...C-MAN AND BUOY OBSERVATIONS...

STATION/POSITION TIME  TEMP    WIND        PRES    WAVE   SWELL
                       AIR SEA DIR/SP/G            HT/PER HT/PER/DIR
                 (UTC) (F)     (DEG/KT/KT) (MB)    (FT/S) (FT/S/D)
BUOY 41004       2150   84 85   50/ 12/ 14 1013.2F   3/ 5   2/ 6
BUOY 41008       2150   82 82   50/ 10/ 12 1013.6F   2/ 5   2/140/ 5
FOLLY BEACH CMAN NOT AVBL
CAPERS NEARSHORE NOT AVBL
FRIPP NEARSHORE  NOT AVBL


STATION/POSITION TIME  TEMP    WIND        PRES    WAVE   SWELL
                       AIR SEA DIR/SP/G            HT/PER HT/PER/DIR
                 (UTC) (F)     (DEG/KT/KT) (MB)    (FT/S) (FT/S/D)
5E ST. MARYS GA  2121      82                N/A     2/11
FRYING PAN BUOY  2150   84 84   70/ 14/ 16 1014.3F   5/ 7   3/180/ 7
BUOY 41025       NOT AVBL
CAPE LOOKOUT NC  NOT AVBL
BUOY 41002       2150   82 82  220/ 21/ 25 1013.5F   8/ 7
BUOY 41010       2120   85 84  190/ 12/ 14 1014.4F
ST AUGUSTINE FL  2200   81 83   20/ 11/ 11 1013.9F


$$



USA.gov is the U.S. government's official web portal to all federal, state and local government web resources and services.